Time,TemperatureF,DewpointF,PressureIn,WindDirection,WindDirectionDegrees,WindSpeedMPH,WindSpeedGustMPH,Humidity,HourlyPrecipIn,Conditions,Clouds,dailyrainin,SoftwareType,DateUTC
2013-05-31 00:02:00,63.5,60.4,30.19,SE,135,0.0,0.0,90,0.00,,,0.00,meteohub,2013-05-31 04:02:00,
2013-05-31 00:03:00,63.5,60.4,30.19,SE,135,0.0,0.0,90,0.00,,,0.00,meteohub,2013-05-31 04:03:00,
2013-05-31 00:06:00,63.5,60.4,30.19,SE,135,0.0,0.0,90,0.00,,,0.00,meteohub,2013-05-31 04:06:00,
2013-05-31 00:12:00,63.5,60.8,30.20,SE,135,0.0,0.0,91,0.00,,,0.00,meteohub,2013-05-31 04:12:00,
2013-05-31 00:17:00,63.5,60.4,30.19,SE,135,0.0,0.0,90,0.00,,,0.00,meteohub,2013-05-31 04:17:00,
2013-05-31 00:22:00,63.5,60.8,30.19,SE,135,0.0,0.0,91,0.00,,,0.00,meteohub,2013-05-31 04:22:00,
2013-05-31 00:24:00,63.3,60.3,30.19,SE,135,0.0,0.0,90,0.00,,,0.00,meteohub,2013-05-31 04:24:00,
2013-05-31 00:30:00,63.1,60.4,30.19,SE,135,0.0,0.0,91,0.00,,,0.00,meteohub,2013-05-31 04:30:00,
2013-05-31 00:36:00,63.1,60.4,30.20,SE,135,0.0,0.0,91,0.00,,,0.00,meteohub,2013-05-31 04:36:00,
2013-05-31 00:42:00,63.1,60.4,30.20,SE,135,0.0,0.0,91,0.00,,,0.00,meteohub,2013-05-31 04:42:00,
2013-05-31 00:47:00,63.0,60.3,30.20,SE,135,0.0,0.0,91,0.00,,,0.00,meteohub,2013-05-31 04:47:00,
2013-05-31 00:52:00,63.0,60.3,30.20,SE,135,0.0,0.0,91,0.00,,,0.00,meteohub,2013-05-31 04:52:00,
2013-05-31 00:57:00,62.8,60.1,30.19,SE,135,0.0,0.0,91,0.00,,,0.00,meteohub,2013-05-31 04:57:00,
2013-05-31 01:02:00,62.8,60.4,30.19,SE,135,0.0,0.0,92,0.00,,,0.00,meteohub,2013-05-31 05:02:00,
2013-05-31 01:07:00,62.8,60.4,30.20,SE,135,0.0,0.0,92,0.00,,,0.00,meteohub,2013-05-31 05:07:00,
2013-05-31 01:12:00,62.6,59.9,30.19,SE,135,0.0,0.0,91,0.00,,,0.00,meteohub,2013-05-31 05:12:00,
2013-05-31 01:17:00,62.6,60.3,30.19,SE,135,0.0,0.0,92,0.00,,,0.00,meteohub,2013-05-31 05:17:00,
2013-05-31 01:22:00,62.4,60.1,30.19,SE,135,0.0,0.0,92,0.00,,,0.00,meteohub,2013-05-31 05:22:00,
2013-05-31 01:27:00,62.2,59.9,30.20,SE,135,0.0,0.0,92,0.00,,,0.00,meteohub,2013-05-31 05:27:00,
2013-05-31 01:32:00,62.2,59.9,30.19,SE,135,0.0,0.0,92,0.00,,,0.00,meteohub,2013-05-31 05:32:00,
2013-05-31 01:37:00,62.2,59.9,30.19,SE,135,0.0,0.0,92,0.00,,,0.00,meteohub,2013-05-31 05:37:00,
2013-05-31 01:42:00,62.4,60.1,30.19,SE,135,0.0,0.0,92,0.00,,,0.00,meteohub,2013-05-31 05:42:00,
2013-05-31 01:47:00,62.4,60.1,30.20,SE,135,0.0,0.0,92,0.00,,,0.00,meteohub,2013-05-31 05:47:00,
2013-05-31 01:52:00,62.4,60.1,30.20,SE,135,0.0,0.0,92,0.00,,,0.00,meteohub,2013-05-31 05:52:00,
2013-05-31 01:57:00,62.6,60.3,30.19,SE,135,0.0,0.0,92,0.00,,,0.00,meteohub,2013-05-31 05:57:00,
2013-05-31 02:02:00,62.6,60.3,30.19,SE,135,0.0,0.0,92,0.00,,,0.00,meteohub,2013-05-31 06:02:00,
2013-05-31 02:07:00,62.8,60.8,30.19,East,90,0.0,0.0,93,0.00,,,0.00,meteohub,2013-05-31 06:07:00,
2013-05-31 02:12:00,63.0,61.0,30.20,East,90,0.0,0.0,93,0.00,,,0.00,meteohub,2013-05-31 06:12:00,
2013-05-31 02:17:00,63.1,61.2,30.20,East,90,0.0,0.0,93,0.00,,,0.00,meteohub,2013-05-31 06:17:00,
2013-05-31 02:22:00,63.3,61.3,30.19,East,90,0.0,0.0,93,0.00,,,0.00,meteohub,2013-05-31 06:22:00,
2013-05-31 02:27:00,63.7,61.7,30.20,East,90,0.0,0.0,93,0.00,,,0.00,meteohub,2013-05-31 06:27:00,
2013-05-31 02:32:00,63.9,62.1,30.20,SE,135,0.0,0.0,94,0.00,,,0.00,meteohub,2013-05-31 06:32:00,
2013-05-31 02:37:00,64.0,62.2,30.20,SE,135,0.0,0.0,94,0.00,,,0.00,meteohub,2013-05-31 06:37:00,
2013-05-31 02:42:00,64.0,62.2,30.19,SE,135,0.0,0.0,94,0.00,,,0.00,meteohub,2013-05-31 06:42:00,
2013-05-31 02:47:00,64.2,62.4,30.20,SE,135,0.0,0.0,94,0.00,,,0.00,meteohub,2013-05-31 06:47:00,
2013-05-31 02:52:00,64.4,63.0,30.20,SE,135,0.0,0.0,95,0.00,,,0.00,meteohub,2013-05-31 06:52:00,
2013-05-31 02:57:00,64.8,63.3,30.20,SE,135,0.0,0.0,95,0.00,,,0.00,meteohub,2013-05-31 06:57:00,
2013-05-31 03:02:00,64.9,63.5,30.19,SE,135,0.0,0.0,95,0.00,,,0.00,meteohub,2013-05-31 07:02:00,
2013-05-31 03:07:00,65.3,63.9,30.20,SE,135,0.0,0.0,95,0.00,,,0.00,meteohub,2013-05-31 07:07:00,
2013-05-31 03:12:00,65.3,63.9,30.20,SE,135,0.0,0.0,95,0.00,,,0.00,meteohub,2013-05-31 07:12:00,
2013-05-31 03:17:00,65.3,63.9,30.19,SE,135,0.0,0.0,95,0.00,,,0.00,meteohub,2013-05-31 07:17:00,
2013-05-31 03:22:00,65.5,64.0,30.19,SE,135,0.0,0.0,95,0.00,,,0.00,meteohub,2013-05-31 07:22:00,
2013-05-31 03:27:00,65.5,64.0,30.19,SE,135,0.0,0.0,95,0.00,,,0.00,meteohub,2013-05-31 07:27:00,
2013-05-31 03:32:00,65.3,63.9,30.20,SE,135,0.0,0.0,95,0.00,,,0.00,meteohub,2013-05-31 07:32:00,
2013-05-31 03:37:00,65.3,64.0,30.20,SE,135,0.0,0.0,96,0.00,,,0.00,meteohub,2013-05-31 07:37:00,
2013-05-31 03:42:00,65.3,64.0,30.21,SE,135,0.0,0.0,96,0.00,,,0.00,meteohub,2013-05-31 07:42:00,
2013-05-31 03:47:00,65.1,64.0,30.20,SE,135,0.0,0.0,96,0.00,,,0.00,meteohub,2013-05-31 07:47:00,
2013-05-31 03:52:00,65.1,64.0,30.20,SE,135,0.0,0.0,96,0.00,,,0.00,meteohub,2013-05-31 07:52:00,
2013-05-31 03:57:00,64.9,63.9,30.21,SE,135,0.0,0.0,96,0.00,,,0.00,meteohub,2013-05-31 07:57:00,
2013-05-31 04:05:00,64.9,63.9,30.20,SE,135,0.0,0.0,96,0.00,,,0.00,meteohub,2013-05-31 08:05:00,
2013-05-31 04:11:00,64.6,63.5,30.21,SE,135,0.0,0.0,96,0.00,,,0.00,meteohub,2013-05-31 08:11:00,
2013-05-31 04:17:00,64.4,63.3,30.21,SE,135,0.0,0.0,96,0.00,,,0.00,meteohub,2013-05-31 08:17:00,
2013-05-31 04:22:00,64.0,63.0,30.20,SE,135,0.0,0.0,96,0.00,,,0.00,meteohub,2013-05-31 08:22:00,
2013-05-31 04:27:00,63.9,62.8,30.20,SE,135,0.0,0.0,96,0.00,,,0.00,meteohub,2013-05-31 08:27:00,
2013-05-31 04:32:00,63.7,62.6,30.20,SE,135,0.0,0.0,96,0.00,,,0.00,meteohub,2013-05-31 08:32:00,
2013-05-31 04:37:00,63.5,62.4,30.20,SE,135,0.0,0.0,96,0.00,,,0.00,meteohub,2013-05-31 08:37:00,
2013-05-31 04:42:00,63.1,62.1,30.20,SE,135,0.0,0.0,96,0.00,,,0.00,meteohub,2013-05-31 08:42:00,
2013-05-31 04:47:00,63.0,61.9,30.20,SE,135,0.0,0.0,96,0.00,,,0.00,meteohub,2013-05-31 08:47:00,
2013-05-31 04:52:00,62.8,61.7,30.20,SE,135,0.0,0.0,96,0.00,,,0.00,meteohub,2013-05-31 08:52:00,
2013-05-31 04:57:00,62.6,61.5,30.20,SE,135,0.0,0.0,96,0.00,,,0.00,meteohub,2013-05-31 08:57:00,
2013-05-31 05:02:00,62.4,61.0,30.20,SE,135,0.0,0.0,95,0.00,,,0.00,meteohub,2013-05-31 09:02:00,
2013-05-31 05:07:00,62.4,61.0,30.20,SE,135,0.0,0.0,95,0.00,,,0.00,meteohub,2013-05-31 09:07:00,
2013-05-31 05:12:00,61.9,60.8,30.20,SE,135,0.0,0.0,96,0.00,,,0.00,meteohub,2013-05-31 09:12:00,
2013-05-31 05:17:00,61.9,60.8,30.20,SE,135,0.0,0.0,96,0.00,,,0.00,meteohub,2013-05-31 09:17:00,
2013-05-31 05:22:00,61.7,60.3,30.20,SE,135,0.0,0.0,95,0.00,,,0.00,meteohub,2013-05-31 09:22:00,
2013-05-31 05:27:00,61.5,60.1,30.20,SE,135,0.0,0.0,95,0.00,,,0.00,meteohub,2013-05-31 09:27:00,
2013-05-31 05:32:00,61.3,60.3,30.20,SE,135,0.0,0.0,96,0.00,,,0.00,meteohub,2013-05-31 09:32:00,
2013-05-31 05:37:00,61.2,59.7,30.21,SE,135,0.0,0.0,95,0.00,,,0.00,meteohub,2013-05-31 09:37:00,
2013-05-31 05:42:00,61.0,59.5,30.21,SE,135,0.0,0.0,95,0.00,,,0.00,meteohub,2013-05-31 09:42:00,
2013-05-31 05:47:00,60.8,59.4,30.21,SE,135,0.0,0.0,95,0.00,,,0.00,meteohub,2013-05-31 09:47:00,
2013-05-31 05:52:00,60.8,59.7,30.21,SE,135,0.0,0.0,96,0.00,,,0.00,meteohub,2013-05-31 09:52:00,
2013-05-31 05:57:00,60.6,59.2,30.21,SE,135,0.0,0.0,95,0.00,,,0.00,meteohub,2013-05-31 09:57:00,
2013-05-31 06:02:00,60.3,58.8,30.21,SE,135,0.0,0.0,95,0.00,,,0.00,meteohub,2013-05-31 10:02:00,
2013-05-31 06:07:00,60.4,59.0,30.20,SE,135,0.0,0.0,95,0.00,,,0.00,meteohub,2013-05-31 10:07:00,
2013-05-31 06:12:00,60.4,59.0,30.21,SE,135,0.0,0.0,95,0.00,,,0.00,meteohub,2013-05-31 10:12:00,
2013-05-31 06:17:00,60.3,58.8,30.21,SE,135,0.0,0.0,95,0.00,,,0.00,meteohub,2013-05-31 10:17:00,
2013-05-31 06:22:00,60.3,59.2,30.22,SE,135,0.0,0.0,96,0.00,,,0.00,meteohub,2013-05-31 10:22:00,
2013-05-31 06:27:00,60.3,58.8,30.22,SE,135,0.0,0.0,95,0.00,,,0.00,meteohub,2013-05-31 10:27:00,
2013-05-31 06:32:00,60.3,58.8,30.22,SE,135,0.0,0.0,95,0.00,,,0.00,meteohub,2013-05-31 10:32:00,
2013-05-31 06:37:00,60.3,58.8,30.22,SE,135,0.0,0.0,95,0.00,,,0.00,meteohub,2013-05-31 10:37:00,
2013-05-31 06:42:00,60.3,58.8,30.22,SE,135,0.0,0.0,95,0.00,,,0.00,meteohub,2013-05-31 10:42:00,
2013-05-31 06:47:00,60.4,59.4,30.22,SE,135,0.0,0.0,96,0.00,,,0.00,meteohub,2013-05-31 10:47:00,
2013-05-31 06:52:00,60.4,59.4,30.22,SE,135,0.0,0.0,96,0.00,,,0.00,meteohub,2013-05-31 10:52:00,
2013-05-31 06:57:00,60.6,59.5,30.22,SE,135,0.0,0.0,96,0.00,,,0.00,meteohub,2013-05-31 10:57:00,
2013-05-31 07:02:00,60.6,59.5,30.22,SE,135,0.0,0.0,96,0.00,,,0.00,meteohub,2013-05-31 11:02:00,
2013-05-31 07:07:00,60.8,59.7,30.22,SE,135,0.0,0.0,96,0.00,,,0.00,meteohub,2013-05-31 11:07:00,
2013-05-31 07:12:00,61.2,60.1,30.22,SE,135,0.0,0.0,96,0.00,,,0.00,meteohub,2013-05-31 11:12:00,
2013-05-31 07:17:00,61.3,60.3,30.22,SE,135,0.0,0.0,96,0.00,,,0.00,meteohub,2013-05-31 11:17:00,
2013-05-31 07:22:00,61.5,60.4,30.22,SE,135,0.0,0.0,96,0.00,,,0.00,meteohub,2013-05-31 11:22:00,
2013-05-31 07:27:00,61.9,61.0,30.22,SE,135,0.0,0.0,97,0.00,,,0.00,meteohub,2013-05-31 11:27:00,
2013-05-31 07:32:00,62.1,61.0,30.22,SE,135,0.0,0.0,96,0.00,,,0.00,meteohub,2013-05-31 11:32:00,
2013-05-31 07:37:00,62.4,61.5,30.22,SE,135,0.0,0.0,97,0.00,,,0.00,meteohub,2013-05-31 11:37:00,
2013-05-31 07:42:00,63.1,62.2,30.22,SE,135,0.0,0.0,97,0.00,,,0.00,meteohub,2013-05-31 11:42:00,
2013-05-31 07:47:00,63.7,62.8,30.22,NW,315,2.0,2.0,97,0.00,,,0.00,meteohub,2013-05-31 11:47:00,
2013-05-31 07:52:00,64.4,63.5,30.21,NW,315,4.0,4.0,97,0.00,,,0.00,meteohub,2013-05-31 11:52:00,
2013-05-31 07:57:00,65.3,64.8,30.21,ENE,68,0.0,4.0,98,0.00,,,0.00,meteohub,2013-05-31 11:57:00,
2013-05-31 08:02:00,65.8,65.3,30.22,NW,315,2.0,4.0,98,0.00,,,0.00,meteohub,2013-05-31 12:02:00,
2013-05-31 08:07:00,66.4,65.8,30.22,South,180,1.0,4.0,98,0.00,,,0.00,meteohub,2013-05-31 12:07:00,
2013-05-31 08:12:00,67.1,66.6,30.22,NE,45,2.0,3.0,98,0.00,,,0.00,meteohub,2013-05-31 12:12:00,
2013-05-31 08:17:00,67.5,66.9,30.22,East,90,2.0,3.0,98,0.00,,,0.00,meteohub,2013-05-31 12:17:00,
2013-05-31 08:22:00,67.8,67.3,30.22,East,90,2.0,3.0,98,0.00,,,0.00,meteohub,2013-05-31 12:22:00,
2013-05-31 08:27:00,68.2,67.6,30.22,East,90,2.0,2.0,98,0.00,,,0.00,meteohub,2013-05-31 12:27:00,
2013-05-31 08:32:00,68.5,68.0,30.22,SE,135,2.0,2.0,98,0.00,,,0.00,meteohub,2013-05-31 12:32:00,
2013-05-31 08:37:00,68.9,68.4,30.22,South,180,2.0,3.0,98,0.00,,,0.00,meteohub,2013-05-31 12:37:00,
2013-05-31 08:42:00,69.4,68.9,30.22,NE,45,2.0,3.0,98,0.00,,,0.00,meteohub,2013-05-31 12:42:00,
2013-05-31 08:47:00,69.8,68.9,30.22,SE,135,2.0,3.0,97,0.00,,,0.00,meteohub,2013-05-31 12:47:00,
2013-05-31 08:52:00,70.2,68.9,30.22,SE,135,4.0,4.0,96,0.00,,,0.00,meteohub,2013-05-31 12:52:00,
2013-05-31 08:57:00,70.7,69.3,30.22,West,270,4.0,4.0,95,0.00,,,0.00,meteohub,2013-05-31 12:57:00,
2013-05-31 09:02:00,71.1,69.3,30.22,North,0,2.0,4.0,94,0.00,,,0.00,meteohub,2013-05-31 13:02:00,
2013-05-31 09:07:00,71.4,69.3,30.22,NW,315,2.0,4.0,93,0.00,,,0.00,meteohub,2013-05-31 13:07:00,
2013-05-31 09:12:00,72.3,70.2,30.22,NW,315,4.0,6.0,93,0.00,,,0.00,meteohub,2013-05-31 13:12:00,
2013-05-31 09:17:00,72.9,70.2,30.22,NW,315,2.0,6.0,91,0.00,,,0.00,meteohub,2013-05-31 13:17:00,
2013-05-31 09:22:00,73.6,70.2,30.22,North,0,3.0,6.0,89,0.00,,,0.00,meteohub,2013-05-31 13:22:00,
2013-05-31 09:27:00,74.1,70.0,30.22,SE,135,4.0,4.0,87,0.00,,,0.00,meteohub,2013-05-31 13:27:00,
2013-05-31 09:32:00,74.7,70.2,30.22,East,90,2.0,4.0,86,0.00,,,0.00,meteohub,2013-05-31 13:32:00,
2013-05-31 09:37:00,75.0,70.2,30.22,East,90,2.0,4.0,85,0.00,,,0.00,meteohub,2013-05-31 13:37:00,
2013-05-31 09:42:00,75.7,70.5,30.22,South,180,4.0,4.0,84,0.00,,,0.00,meteohub,2013-05-31 13:42:00,
2013-05-31 09:47:00,76.3,70.7,30.22,SW,225,3.0,4.0,83,0.00,,,0.00,meteohub,2013-05-31 13:47:00,
2013-05-31 09:52:00,77.2,70.2,30.21,North,0,4.0,4.0,79,0.00,,,0.00,meteohub,2013-05-31 13:52:00,
2013-05-31 09:57:00,77.4,69.6,30.21,East,90,3.0,6.0,77,0.00,,,0.00,meteohub,2013-05-31 13:57:00,
2013-05-31 10:02:00,77.7,70.3,30.21,South,180,2.0,6.0,78,0.00,,,0.00,meteohub,2013-05-31 14:02:00,
2013-05-31 10:07:00,78.1,70.0,30.21,NW,315,8.0,8.0,76,0.00,,,0.00,meteohub,2013-05-31 14:07:00,
2013-05-31 10:12:00,78.6,70.3,30.21,ENE,68,2.0,8.0,76,0.00,,,0.00,meteohub,2013-05-31 14:12:00,
2013-05-31 10:17:00,79.2,70.9,30.21,NE,45,2.0,8.0,76,0.00,,,0.00,meteohub,2013-05-31 14:17:00,
2013-05-31 10:22:00,79.7,70.3,30.21,East,90,2.0,8.0,73,0.00,,,0.00,meteohub,2013-05-31 14:22:00,
2013-05-31 10:27:00,80.1,70.7,30.21,North,0,2.0,4.0,73,0.00,,,0.00,meteohub,2013-05-31 14:27:00,
2013-05-31 10:32:00,80.2,70.3,30.21,SE,135,2.0,4.0,72,0.00,,,0.00,meteohub,2013-05-31 14:32:00,
2013-05-31 10:37:00,80.4,69.8,30.21,SW,225,2.0,4.0,70,0.00,,,0.00,meteohub,2013-05-31 14:37:00,
2013-05-31 10:42:00,80.6,70.0,30.21,SE,135,2.0,4.0,70,0.00,,,0.00,meteohub,2013-05-31 14:42:00,
2013-05-31 10:47:00,81.3,71.1,30.22,East,90,2.0,4.0,71,0.00,,,0.00,meteohub,2013-05-31 14:47:00,
2013-05-31 10:52:00,81.5,71.2,30.21,SW,225,2.0,4.0,71,0.00,,,0.00,meteohub,2013-05-31 14:52:00,
2013-05-31 10:57:00,82.2,69.8,30.21,South,180,3.0,4.0,66,0.00,,,0.00,meteohub,2013-05-31 14:57:00,
2013-05-31 11:02:00,81.7,69.3,30.22,North,0,4.0,8.0,66,0.00,,,0.00,meteohub,2013-05-31 15:02:00,
2013-05-31 11:07:00,81.3,69.8,30.21,North,0,3.0,8.0,68,0.00,,,0.00,meteohub,2013-05-31 15:07:00,
2013-05-31 11:12:00,82.0,70.3,30.22,NE,45,2.0,8.0,68,0.00,,,0.00,meteohub,2013-05-31 15:12:00,
2013-05-31 11:17:00,82.2,69.8,30.22,East,90,3.0,6.0,66,0.00,,,0.00,meteohub,2013-05-31 15:17:00,
2013-05-31 11:22:00,82.2,70.5,30.22,East,90,2.0,6.0,68,0.00,,,0.00,meteohub,2013-05-31 15:22:00,
2013-05-31 11:27:00,82.8,70.7,30.22,SW,225,2.0,4.0,67,0.00,,,0.00,meteohub,2013-05-31 15:27:00,
2013-05-31 11:32:00,83.3,70.7,30.22,SE,135,2.0,4.0,66,0.00,,,0.00,meteohub,2013-05-31 15:32:00,
2013-05-31 11:37:00,82.9,68.2,30.22,NE,45,2.0,3.0,61,0.00,,,0.00,meteohub,2013-05-31 15:37:00,
2013-05-31 11:42:00,83.1,68.7,30.21,East,90,2.0,3.0,62,0.00,,,0.00,meteohub,2013-05-31 15:42:00,
2013-05-31 11:47:00,82.9,68.2,30.21,North,0,3.0,3.0,61,0.00,,,0.00,meteohub,2013-05-31 15:47:00,
2013-05-31 11:52:00,82.9,67.6,30.21,North,0,6.0,6.0,60,0.00,,,0.00,meteohub,2013-05-31 15:52:00,
2013-05-31 11:57:00,83.5,67.6,30.21,NW,315,6.0,6.0,59,0.00,,,0.00,meteohub,2013-05-31 15:57:00,
2013-05-31 12:02:00,83.3,66.0,30.21,North,0,4.0,7.0,56,0.00,,,0.00,meteohub,2013-05-31 16:02:00,
2013-05-31 12:07:00,83.8,68.9,30.21,North,0,2.0,7.0,61,0.00,,,0.00,meteohub,2013-05-31 16:07:00,
2013-05-31 12:13:00,84.6,69.6,30.21,South,180,2.0,7.0,61,0.00,,,0.00,meteohub,2013-05-31 16:13:00,
2013-05-31 12:19:00,84.9,68.9,30.21,NE,45,2.0,5.0,59,0.00,,,0.00,meteohub,2013-05-31 16:19:00,
2013-05-31 12:26:00,85.3,67.3,30.21,South,180,4.0,6.0,55,0.00,,,0.00,meteohub,2013-05-31 16:26:00,
2013-05-31 12:32:00,84.0,66.6,30.20,SW,225,2.0,6.0,56,0.00,,,0.00,meteohub,2013-05-31 16:32:00,
2013-05-31 12:37:00,82.9,65.7,30.21,East,90,4.0,6.0,56,0.00,,,0.00,meteohub,2013-05-31 16:37:00,
2013-05-31 12:42:00,82.9,67.6,30.20,South,180,2.0,5.0,60,0.00,,,0.00,meteohub,2013-05-31 16:42:00,
2013-05-31 12:47:00,83.5,67.1,30.20,SE,135,3.0,4.0,58,0.00,,,0.00,meteohub,2013-05-31 16:47:00,
2013-05-31 12:52:00,84.0,68.7,30.20,East,90,2.0,7.0,60,0.00,,,0.00,meteohub,2013-05-31 16:52:00,
2013-05-31 12:57:00,84.6,67.1,30.20,South,180,2.0,7.0,56,0.00,,,0.00,meteohub,2013-05-31 16:57:00,
2013-05-31 13:02:00,84.7,68.9,30.19,South,180,2.0,4.0,59,0.00,,,0.00,meteohub,2013-05-31 17:02:00,
2013-05-31 13:07:00,85.3,68.9,30.19,NW,315,2.0,3.0,58,0.00,,,0.00,meteohub,2013-05-31 17:07:00,
2013-05-31 13:12:00,86.0,67.5,30.19,NW,315,3.0,3.0,54,0.00,,,0.00,meteohub,2013-05-31 17:12:00,
2013-05-31 13:17:00,85.5,67.5,30.19,SE,135,1.0,4.0,55,0.00,,,0.00,meteohub,2013-05-31 17:17:00,
2013-05-31 13:22:00,85.6,65.5,30.19,East,90,3.0,4.0,51,0.00,,,0.00,meteohub,2013-05-31 17:22:00,
2013-05-31 13:27:00,84.9,66.4,30.18,SE,135,2.0,4.0,54,0.00,,,0.00,meteohub,2013-05-31 17:27:00,
2013-05-31 13:32:00,83.7,65.8,30.19,South,180,2.0,3.0,55,0.00,,,0.00,meteohub,2013-05-31 17:32:00,
2013-05-31 13:37:00,83.8,68.0,30.18,NE,45,3.0,3.0,59,0.00,,,0.00,meteohub,2013-05-31 17:37:00,
2013-05-31 13:42:00,84.7,67.8,30.18,West,270,4.0,4.0,57,0.00,,,0.00,meteohub,2013-05-31 17:42:00,
2013-05-31 13:47:00,85.1,68.7,30.18,South,180,3.0,4.0,58,0.00,,,0.00,meteohub,2013-05-31 17:47:00,
2013-05-31 13:52:00,85.8,66.7,30.18,North,0,3.0,4.0,53,0.00,,,0.00,meteohub,2013-05-31 17:52:00,
2013-05-31 13:57:00,86.0,68.5,30.17,East,90,2.0,4.0,56,0.00,,,0.00,meteohub,2013-05-31 17:57:00,
2013-05-31 14:02:00,86.2,68.7,30.17,NW,315,4.0,4.0,56,0.00,,,0.00,meteohub,2013-05-31 18:02:00,
2013-05-31 14:07:00,86.7,68.5,30.17,NE,45,2.0,4.0,55,0.00,,,0.00,meteohub,2013-05-31 18:07:00,
2013-05-31 14:12:00,86.7,68.0,30.17,South,180,2.0,4.0,54,0.00,,,0.00,meteohub,2013-05-31 18:12:00,
2013-05-31 14:17:00,86.9,68.7,30.17,West,270,2.0,4.0,55,0.00,,,0.00,meteohub,2013-05-31 18:17:00,
2013-05-31 14:22:00,87.1,66.7,30.17,North,0,3.0,4.0,51,0.00,,,0.00,meteohub,2013-05-31 18:22:00,
2013-05-31 14:27:00,87.1,66.7,30.17,SW,225,2.0,4.0,51,0.00,,,0.00,meteohub,2013-05-31 18:27:00,
2013-05-31 14:32:00,87.3,68.0,30.17,NW,315,3.0,4.0,53,0.00,,,0.00,meteohub,2013-05-31 18:32:00,
2013-05-31 14:37:00,86.9,66.0,30.16,SE,135,2.0,4.0,50,0.00,,,0.00,meteohub,2013-05-31 18:37:00,
2013-05-31 14:42:00,86.7,67.5,30.16,SE,135,2.0,4.0,53,0.00,,,0.00,meteohub,2013-05-31 18:42:00,
2013-05-31 14:47:00,87.1,66.2,30.16,SW,225,3.0,4.0,50,0.00,,,0.00,meteohub,2013-05-31 18:47:00,
2013-05-31 14:52:00,87.3,66.4,30.16,East,90,2.0,4.0,50,0.00,,,0.00,meteohub,2013-05-31 18:52:00,
2013-05-31 14:59:00,87.1,63.9,30.16,NW,315,2.0,4.0,46,0.00,,,0.00,meteohub,2013-05-31 18:59:00,
2013-05-31 15:06:00,87.3,64.6,30.16,NE,45,6.0,6.0,47,0.00,,,0.00,meteohub,2013-05-31 19:06:00,
2013-05-31 15:12:00,87.4,65.8,30.15,SE,135,2.0,6.0,49,0.00,,,0.00,meteohub,2013-05-31 19:12:00,
2013-05-31 15:17:00,87.8,66.2,30.15,West,270,2.0,6.0,49,0.00,,,0.00,meteohub,2013-05-31 19:17:00,
2013-05-31 15:22:00,88.2,66.0,30.15,SE,135,2.0,6.0,48,0.00,,,0.00,meteohub,2013-05-31 19:22:00,
2013-05-31 15:27:00,88.3,64.9,30.14,SE,135,3.0,4.0,46,0.00,,,0.00,meteohub,2013-05-31 19:27:00,
2013-05-31 15:32:00,88.2,65.3,30.14,NW,315,4.0,4.0,47,0.00,,,0.00,meteohub,2013-05-31 19:32:00,
2013-05-31 15:37:00,88.2,66.6,30.14,SE,135,1.0,4.0,49,0.00,,,0.00,meteohub,2013-05-31 19:37:00,
2013-05-31 15:42:00,88.3,65.5,30.14,South,180,2.0,4.0,47,0.00,,,0.00,meteohub,2013-05-31 19:42:00,
2013-05-31 15:47:00,88.5,66.9,30.14,West,270,2.0,4.0,49,0.00,,,0.00,meteohub,2013-05-31 19:47:00,
2013-05-31 15:52:00,88.2,65.3,30.14,South,180,2.0,3.0,47,0.00,,,0.00,meteohub,2013-05-31 19:52:00,
2013-05-31 15:57:00,87.8,64.4,30.13,South,180,4.0,5.0,46,0.00,,,0.00,meteohub,2013-05-31 19:57:00,
2013-05-31 16:02:00,87.6,65.5,30.13,South,180,2.0,5.0,48,0.00,,,0.00,meteohub,2013-05-31 20:02:00,
2013-05-31 16:07:00,87.6,64.9,30.13,South,180,4.0,5.0,47,0.00,,,0.00,meteohub,2013-05-31 20:07:00,
2013-05-31 16:12:00,86.7,63.5,30.13,NW,315,2.0,4.0,46,0.00,,,0.00,meteohub,2013-05-31 20:12:00,
2013-05-31 16:17:00,86.5,64.6,30.13,NW,315,3.0,4.0,48,0.00,,,0.00,meteohub,2013-05-31 20:17:00,
2013-05-31 16:22:00,86.9,66.6,30.12,East,90,2.0,4.0,51,0.00,,,0.00,meteohub,2013-05-31 20:22:00,
2013-05-31 16:27:00,87.6,66.7,30.13,South,180,1.0,3.0,50,0.00,,,0.00,meteohub,2013-05-31 20:27:00,
2013-05-31 16:32:00,88.3,66.2,30.12,North,0,2.0,3.0,48,0.00,,,0.00,meteohub,2013-05-31 20:32:00,
2013-05-31 16:37:00,88.2,66.0,30.12,NW,315,2.0,2.0,48,0.00,,,0.00,meteohub,2013-05-31 20:37:00,
2013-05-31 16:42:00,88.2,64.8,30.12,South,180,2.0,2.0,46,0.00,,,0.00,meteohub,2013-05-31 20:42:00,
2013-05-31 16:47:00,88.0,64.0,30.12,South,180,2.0,3.0,45,0.00,,,0.00,meteohub,2013-05-31 20:47:00,
2013-05-31 16:52:00,87.4,63.5,30.12,North,0,2.0,3.0,45,0.00,,,0.00,meteohub,2013-05-31 20:52:00,
2013-05-31 16:57:00,86.9,64.2,30.12,SW,225,1.0,3.0,47,0.00,,,0.00,meteohub,2013-05-31 20:57:00,
2013-05-31 17:02:00,86.2,64.2,30.12,SE,135,2.0,2.0,48,0.00,,,0.00,meteohub,2013-05-31 21:02:00,
2013-05-31 17:07:00,85.1,64.4,30.12,North,0,2.0,2.0,50,0.00,,,0.00,meteohub,2013-05-31 21:07:00,
2013-05-31 17:12:00,84.9,65.3,30.11,South,180,2.0,3.0,52,0.00,,,0.00,meteohub,2013-05-31 21:12:00,
2013-05-31 17:17:00,85.3,66.2,30.12,South,180,2.0,3.0,53,0.00,,,0.00,meteohub,2013-05-31 21:17:00,
2013-05-31 17:22:00,85.8,68.4,30.11,South,180,2.0,3.0,56,0.00,,,0.00,meteohub,2013-05-31 21:22:00,
2013-05-31 17:27:00,86.2,66.6,30.11,West,270,2.0,2.0,52,0.00,,,0.00,meteohub,2013-05-31 21:27:00,
2013-05-31 17:32:00,86.4,64.4,30.11,South,180,2.0,2.0,48,0.00,,,0.00,meteohub,2013-05-31 21:32:00,
2013-05-31 17:37:00,86.0,65.1,30.11,SE,135,2.0,2.0,50,0.00,,,0.00,meteohub,2013-05-31 21:37:00,
2013-05-31 17:42:00,84.7,65.7,30.11,South,180,2.0,2.0,53,0.00,,,0.00,meteohub,2013-05-31 21:42:00,
2013-05-31 17:47:00,84.2,64.6,30.10,North,0,2.0,2.0,52,0.00,,,0.00,meteohub,2013-05-31 21:47:00,
2013-05-31 17:52:00,83.5,66.6,30.11,South,180,1.0,2.0,57,0.00,,,0.00,meteohub,2013-05-31 21:52:00,
2013-05-31 17:57:00,83.1,66.7,30.11,SE,135,1.0,2.0,58,0.00,,,0.00,meteohub,2013-05-31 21:57:00,
2013-05-31 18:02:00,83.3,66.9,30.11,SE,135,2.0,2.0,58,0.00,,,0.00,meteohub,2013-05-31 22:02:00,
2013-05-31 18:07:00,83.8,67.5,30.10,SE,135,1.0,2.0,58,0.00,,,0.00,meteohub,2013-05-31 22:07:00,
2013-05-31 18:12:00,84.7,67.3,30.10,NE,45,2.0,2.0,56,0.00,,,0.00,meteohub,2013-05-31 22:12:00,
2013-05-31 18:17:00,84.6,67.1,30.10,South,180,1.0,3.0,56,0.00,,,0.00,meteohub,2013-05-31 22:17:00,
2013-05-31 18:22:00,83.3,66.0,30.10,NE,45,1.0,3.0,56,0.00,,,0.00,meteohub,2013-05-31 22:22:00,
2013-05-31 18:28:00,82.4,66.6,30.10,SW,225,1.0,3.0,59,0.00,,,0.00,meteohub,2013-05-31 22:28:00,
2013-05-31 18:34:00,82.4,66.6,30.10,South,180,2.0,2.0,59,0.00,,,0.00,meteohub,2013-05-31 22:34:00,
2013-05-31 18:40:00,82.0,66.7,30.10,South,180,2.0,2.0,60,0.00,,,0.00,meteohub,2013-05-31 22:40:00,
2013-05-31 18:46:00,81.5,66.7,30.10,South,180,1.0,2.0,61,0.00,,,0.00,meteohub,2013-05-31 22:46:00,
2013-05-31 18:52:00,81.0,66.7,30.10,South,180,2.0,2.0,62,0.00,,,0.00,meteohub,2013-05-31 22:52:00,
2013-05-31 18:57:00,80.4,66.7,30.10,South,180,1.0,2.0,63,0.00,,,0.00,meteohub,2013-05-31 22:57:00,
2013-05-31 19:02:00,80.1,66.7,30.10,South,180,1.0,2.0,64,0.00,,,0.00,meteohub,2013-05-31 23:02:00,
2013-05-31 19:07:00,79.7,66.9,30.10,South,180,0.0,2.0,65,0.00,,,0.00,meteohub,2013-05-31 23:07:00,
2013-05-31 19:12:00,79.3,66.9,30.11,South,180,0.0,2.0,66,0.00,,,0.00,meteohub,2013-05-31 23:12:00,
2013-05-31 19:17:00,79.0,66.6,30.10,South,180,1.0,2.0,66,0.00,,,0.00,meteohub,2013-05-31 23:17:00,
2013-05-31 19:22:00,78.6,66.7,30.10,South,180,0.0,1.0,67,0.00,,,0.00,meteohub,2013-05-31 23:22:00,
2013-05-31 19:27:00,78.3,66.7,30.11,South,180,0.0,1.0,68,0.00,,,0.00,meteohub,2013-05-31 23:27:00,
2013-05-31 19:32:00,77.9,66.6,30.10,South,180,0.0,1.0,68,0.00,,,0.00,meteohub,2013-05-31 23:32:00,
2013-05-31 19:37:00,77.7,67.1,30.11,South,180,0.0,0.0,70,0.00,,,0.00,meteohub,2013-05-31 23:37:00,
2013-05-31 19:42:00,77.4,67.6,30.11,South,180,0.0,0.0,72,0.00,,,0.00,meteohub,2013-05-31 23:42:00,
2013-05-31 19:47:00,77.0,67.6,30.10,South,180,0.0,0.0,73,0.00,,,0.00,meteohub,2013-05-31 23:47:00,
2013-05-31 19:52:00,76.5,67.6,30.10,South,180,1.0,0.0,74,0.00,,,0.00,meteohub,2013-05-31 23:52:00,
2013-05-31 19:57:00,76.1,67.6,30.10,South,180,0.0,1.0,75,0.00,,,0.00,meteohub,2013-05-31 23:57:00,
2013-05-31 20:02:00,75.7,67.6,30.11,South,180,0.0,1.0,76,0.00,,,0.00,meteohub,2013-06-01 00:02:00,
2013-05-31 20:07:00,75.2,67.5,30.10,South,180,0.0,1.0,77,0.00,,,0.00,meteohub,2013-06-01 00:07:00,
2013-05-31 20:12:00,74.7,67.6,30.11,South,180,1.0,0.0,79,0.00,,,0.00,meteohub,2013-06-01 00:12:00,
2013-05-31 20:17:00,74.1,67.1,30.10,South,180,0.0,1.0,79,0.00,,,0.00,meteohub,2013-06-01 00:17:00,
2013-05-31 20:22:00,73.6,67.1,30.10,South,180,0.0,1.0,80,0.00,,,0.00,meteohub,2013-06-01 00:22:00,
2013-05-31 20:27:00,73.2,67.1,30.10,South,180,0.0,1.0,81,0.00,,,0.00,meteohub,2013-06-01 00:27:00,
2013-05-31 20:32:00,72.7,66.9,30.11,South,180,0.0,1.0,82,0.00,,,0.00,meteohub,2013-06-01 00:32:00,
2013-05-31 20:37:00,72.3,66.6,30.10,South,180,0.0,1.0,82,0.00,,,0.00,meteohub,2013-06-01 00:37:00,
2013-05-31 20:42:00,72.0,66.6,30.10,South,180,1.0,1.0,83,0.00,,,0.00,meteohub,2013-06-01 00:42:00,
2013-05-31 20:47:00,71.8,66.7,30.11,South,180,0.0,1.0,84,0.00,,,0.00,meteohub,2013-06-01 00:47:00,
2013-05-31 20:52:00,71.4,66.4,30.10,South,180,0.0,1.0,84,0.00,,,0.00,meteohub,2013-06-01 00:52:00,
2013-05-31 20:57:00,71.1,66.0,30.11,South,180,0.0,1.0,84,0.00,,,0.00,meteohub,2013-06-01 00:57:00,
2013-05-31 21:02:00,70.7,66.0,30.11,South,180,0.0,0.0,85,0.00,,,0.00,meteohub,2013-06-01 01:02:00,
2013-05-31 21:07:00,70.5,65.8,30.10,South,180,1.0,0.0,85,0.00,,,0.00,meteohub,2013-06-01 01:07:00,
2013-05-31 21:12:00,70.2,65.5,30.11,South,180,0.0,1.0,85,0.00,,,0.00,meteohub,2013-06-01 01:12:00,
2013-05-31 21:17:00,69.8,65.1,30.11,South,180,0.0,1.0,85,0.00,,,0.00,meteohub,2013-06-01 01:17:00,
2013-05-31 21:22:00,69.6,65.3,30.11,South,180,0.0,1.0,86,0.00,,,0.00,meteohub,2013-06-01 01:22:00,
2013-05-31 21:27:00,69.4,65.1,30.11,South,180,0.0,0.0,86,0.00,,,0.00,meteohub,2013-06-01 01:27:00,
2013-05-31 21:32:00,69.3,65.3,30.11,South,180,0.0,0.0,87,0.00,,,0.00,meteohub,2013-06-01 01:32:00,
2013-05-31 21:37:00,69.1,65.1,30.11,South,180,0.0,0.0,87,0.00,,,0.00,meteohub,2013-06-01 01:37:00,
2013-05-31 21:42:00,68.7,64.8,30.11,South,180,0.0,0.0,87,0.00,,,0.00,meteohub,2013-06-01 01:42:00,
2013-05-31 21:47:00,68.5,64.6,30.11,South,180,0.0,0.0,87,0.00,,,0.00,meteohub,2013-06-01 01:47:00,
2013-05-31 21:52:00,68.2,64.2,30.12,South,180,0.0,0.0,87,0.00,,,0.00,meteohub,2013-06-01 01:52:00,
2013-05-31 21:57:00,68.0,64.0,30.12,South,180,0.0,0.0,87,0.00,,,0.00,meteohub,2013-06-01 01:57:00,
2013-05-31 22:02:00,67.8,63.9,30.12,South,180,0.0,0.0,87,0.00,,,0.00,meteohub,2013-06-01 02:02:00,
2013-05-31 22:07:00,67.5,63.5,30.12,South,180,0.0,0.0,87,0.00,,,0.00,meteohub,2013-06-01 02:07:00,
2013-05-31 22:12:00,67.3,63.3,30.12,South,180,0.0,0.0,87,0.00,,,0.00,meteohub,2013-06-01 02:12:00,
2013-05-31 22:17:00,67.1,63.1,30.12,South,180,0.0,0.0,87,0.00,,,0.00,meteohub,2013-06-01 02:17:00,
2013-05-31 22:22:00,66.9,63.3,30.13,South,180,2.0,0.0,88,0.00,,,0.00,meteohub,2013-06-01 02:22:00,
2013-05-31 22:27:00,66.7,63.1,30.12,South,180,0.0,2.0,88,0.00,,,0.00,meteohub,2013-06-01 02:27:00,
2013-05-31 22:32:00,66.6,63.1,30.13,South,180,0.0,2.0,89,0.00,,,0.00,meteohub,2013-06-01 02:32:00,
2013-05-31 22:37:00,66.6,63.1,30.12,South,180,1.0,2.0,89,0.00,,,0.00,meteohub,2013-06-01 02:37:00,
2013-05-31 22:42:00,66.4,63.0,30.13,South,180,1.0,1.0,89,0.00,,,0.00,meteohub,2013-06-01 02:42:00,
2013-05-31 22:47:00,66.2,62.8,30.12,South,180,0.0,1.0,89,0.00,,,0.00,meteohub,2013-06-01 02:47:00,
2013-05-31 22:52:00,66.2,62.8,30.12,South,180,1.0,1.0,89,0.00,,,0.00,meteohub,2013-06-01 02:52:00,
2013-05-31 22:57:00,66.0,62.6,30.12,South,180,0.0,1.0,89,0.00,,,0.00,meteohub,2013-06-01 02:57:00,
2013-05-31 23:02:00,66.0,62.6,30.12,South,180,0.0,1.0,89,0.00,,,0.00,meteohub,2013-06-01 03:02:00,
2013-05-31 23:07:00,65.8,62.4,30.12,South,180,0.0,1.0,89,0.00,,,0.00,meteohub,2013-06-01 03:07:00,
2013-05-31 23:12:00,65.8,62.8,30.12,South,180,0.0,1.0,90,0.00,,,0.00,meteohub,2013-06-01 03:12:00,
2013-05-31 23:17:00,65.8,62.8,30.12,South,180,0.0,1.0,90,0.00,,,0.00,meteohub,2013-06-01 03:17:00,
2013-05-31 23:22:00,65.7,62.6,30.12,South,180,1.0,2.0,90,0.00,,,0.00,meteohub,2013-06-01 03:22:00,
2013-05-31 23:27:00,65.7,62.6,30.12,South,180,1.0,2.0,90,0.00,,,0.00,meteohub,2013-06-01 03:27:00,
2013-05-31 23:32:00,65.7,62.6,30.12,South,180,0.0,1.0,90,0.00,,,0.00,meteohub,2013-06-01 03:32:00,
2013-05-31 23:39:00,65.8,62.8,30.12,South,180,0.0,1.0,90,0.00,,,0.00,meteohub,2013-06-01 03:39:00,
2013-05-31 23:45:00,66.0,63.3,30.12,South,180,2.0,2.0,91,0.00,,,0.00,meteohub,2013-06-01 03:45:00,
2013-05-31 23:51:00,66.0,63.3,30.12,South,180,1.0,2.0,91,0.00,,,0.00,meteohub,2013-06-01 03:51:00,
2013-05-31 23:57:00,66.6,64.2,30.12,South,180,2.0,2.0,92,0.00,,,0.00,meteohub,2013-06-01 03:57:00,